Starlink 31057

operational
NORAD ID: 58545 Int'l Des: 2023-192 Owner: SPXS Country: US Constellation: starlink
LEOCIRCULAR

About Starlink 31057

Description loading...

Live Position

Loading 3D Globe...

Upcoming Passes

Altitude History

Altitude vs Time

uPlot chart will show altitude changes over time

Two-Line Element Set

1 58545U 23192Q 25258.45800481 .00000435 00000-0 26813-4 0 9992
2 58545 53.1591 156.8824 0001334 101.5825 258.5326 15.30200229 99159
Epoch: Sep 15, 2025 • Age: 21 hours

Current Status

Altitude 475.0 km
Velocity 7.63 km/s
Sub-Earth Point 8.98°N, 151.06°W
Launch Date Dec 8, 2023
Age 1.7 years
Type internet

Technical Details

Classification Payload
Mass 730.00 kg
Dry Mass 700.00 kg
Total Mass 730.00 kg
Length 0.30 m
Diameter 4.10 m
Span 29.00 m
Shape Box + pan
Manufacturer SPXS
Bus Type Starlink V2M
Phase Status In Orbit
Owner/State SPXS/US

Large Constellations

Loading constellations...